Location: Klein M�hlingen
(51.9472°N, 11.7453°E)
Time: 16:43:01
(UTC+00:00)

SL-16 R/B - Pass Details

Date: 09 April 2020
Orbit: 842 x 846 km, 71.0° (Epoch: 02 June)

Event Time Altitude Azimuth Distance (km) Brightness Sun altitude
Rises 21:28:13 0° 330° (NNW) 3,416 6.7 -25.9°
Reaches altitude 10° 21:30:45 10° 335° (NNW) 2,478 5.7 -26.1°
Maximum altitude 21:36:19 53° 52° (NE) 1,037 2.6 -26.5°
Enters shadow 21:37:00 50° 77° (ENE) 1,072 2.5 -26.5°
